EW2664 Weather Reports


time (UTC)temp
F
wind
direction
speed
knots
gust
knots
rain 1hr
in
rain 24hr
in
rain mn
in
humidity
%
barometer
mb
20210920052030 80 40 0.0 0.0 0.00 0.00 0.00 91 1016.6
20210920051534 80 40 0.0 0.0 0.00 0.00 0.00 91 1016.6
20210920051038 80 40 0.0 0.0 0.00 0.00 0.00 91 1016.6
20210920050541 80 40 0.0 0.0 0.00 0.00 0.00 91 1016.7
20210920050056 80 40 0.0 0.0 0.00 0.00 0.00 91 1016.8
20210920045543 80 39 0.0 0.0 0.00 0.00 0.00 91 1016.8
20210920045027 80 40 0.0 0.0 0.00 0.00 0.00 91 1016.8
20210920044530 80 40 0.0 0.0 0.00 0.00 0.00 91 1016.9
20210920044034 80 40 0.0 0.0 0.00 0.00 0.00 90 1016.9
20210920043538 80 39 0.0 0.0 0.00 0.00 0.00 90 1016.9
20210920043042 80 39 0.0 0.0 0.00 0.00 0.00 90 1017.0
20210920042527 80 40 0.0 0.0 0.00 0.00 0.00 90 1016.9
20210920042029 80 40 0.0 0.0 0.00 0.00 0.00 90 1017.0
20210920041530 80 39 0.0 0.0 0.00 0.00 0.00 90 1017.0
20210920041034 80 39 0.0 0.0 0.00 0.00 0.00 90 1017.0
20210920040536 80 40 0.0 0.0 0.00 0.00 0.00 90 1017.1
20210920040051 80 40 0.0 0.0 0.00 0.00 0.00 91 1017.1
20210920035533 80 39 0.0 0.0 0.00 0.00 0.00 90 1017.1
20210920035038 80 40 0.0 0.0 0.00 0.00 0.00 90 1017.1
20210920034542 80 40 0.0 0.0 0.00 0.00 0.00 90 1017.2
20210920034027 80 40 0.0 0.9 0.00 0.00 0.00 90 1017.2
20210920033532 80 40 0.0 0.0 0.00 0.00 0.00 90 1017.2
20210920033038 80 39 0.0 0.9 0.00 0.00 0.00 90 1017.2
20210920032541 80 39 0.0 0.9 0.00 0.00 0.00 90 1017.2
20210920032030 80 40 0.0 0.9 0.00 0.00 0.00 90 1017.2
20210920031533 80 40 0.0 0.9 0.00 0.00 0.00 90 1017.2
20210920031037 80 40 0.0 0.0 0.00 0.00 0.00 90 1017.2
20210920030543 80 40 0.0 0.0 0.00 0.00 0.00 90 1017.1
20210920030057 80 40 0.0 0.9 0.00 0.00 0.00 90 1017.1
20210920025526 80 40 0.0 0.9 0.00 0.00 0.00 89 1017.1
20210920025031 80 40 0.0 0.9 0.00 0.00 0.00 89 1017.1
20210920024536 80 40 0.0 0.9 0.00 0.00 0.00 89 1017.1
20210920024041 80 40 0.0 0.9 0.00 0.00 0.00 89 1017.2
20210920023544 80 40 0.0 0.9 0.00 0.00 0.00 89 1017.1
20210920023029 80 40 0.0 0.0 0.00 0.00 0.00 89 1017.0
20210920022532 80 39 0.0 0.0 0.00 0.00 0.00 89 1017.0
20210920022037 80 40 0.0 0.0 0.00 0.00 0.00 89 1017.1
20210920021541 80 40 0.0 0.0 0.00 0.00 0.00 89 1017.1
20210920021027 80 40 0.0 0.0 0.00 0.00 0.00 89 1016.9
20210920020531 80 40 0.0 0.9 0.00 0.00 0.00 89 1017.0
20210920020048 80 40 0.0 0.9 0.00 0.00 0.00 89 1017.1
20210920015537 80 38 0.0 1.7 0.00 0.00 0.00 89 1017.1
20210920015041 80 38 0.0 1.7 0.00 0.00 0.00 89 1017.1
20210920014526 80 32 0.0 0.0 0.00 0.00 0.00 89 1016.9
20210920014030 80 32 0.0 0.0 0.00 0.00 0.00 89 1016.9
20210920013535 80 32 0.0 0.0 0.00 0.00 0.00 89 1016.8
20210920013039 80 32 0.0 0.0 0.00 0.00 0.00 89 1016.7
20210920012543 80 32 0.0 0.0 0.00 0.00 0.00 89 1016.8
20210920012028 80 32 0.0 0.0 0.00 0.00 0.00 89 1016.7
20210920011534 80 26 0.0 0.0 0.00 0.00 0.00 89 1016.7
20210920011037 80 26 0.0 0.0 0.00 0.00 0.00 89 1016.7
20210920010542 80 26 0.0 0.0 0.00 0.00 0.00 90 1016.7
20210920010058 80 30 0.0 0.9 0.00 0.00 0.00 90 1016.6
20210920005526 80 30 0.0 1.7 0.00 0.00 0.00 90 1016.5
20210920005032 80 24 0.0 1.7 0.00 0.00 0.00 90 1016.4
20210920004535 80 23 0.0 2.6 0.00 0.00 0.00 90 1016.4
20210920004039 80 31 0.0 1.7 0.00 0.00 0.00 90 1016.3
20210920003544 80 34 0.0 1.7 0.00 0.00 0.00 90 1016.3
20210920003029 80 15 0.9 2.6 0.00 0.00 0.00 90 1016.2
20210920002535 80 355 0.9 3.5 0.00 0.00 0.00 90 1016.3
20210920002038 81 289 0.9 3.5 0.00 0.00 0.00 89 1016.2
20210920001542 81 24 0.9 3.5 0.00 0.00 0.00 89 1016.2
20210920001045 81 320 0.9 3.5 0.00 0.00 0.00 88 1016.1
20210920000528 81 302 0.9 6.1 0.00 0.00 0.00 88 1016.0
20210920000044 82 342 1.7 6.1 0.00 0.00 0.00 88 1016.0
20210919235532 82 278 0.0 3.5 0.00 0.00 0.00 87 1016.1
20210919235036 81 263 1.7 3.5 0.00 0.00 0.00 87 1016.0
20210919234540 82 335 0.9 3.5 0.00 0.00 0.00 87 1015.8
20210919234044 82 281 0.9 3.5 0.00 0.00 0.00 86 1015.7
20210919233530 82 288 0.9 3.5 0.00 0.00 0.00 86 1015.7
20210919233035 82 342 0.9 4.3 0.00 0.00 0.00 85 1015.8
20210919232540 83 259 1.7 6.1 0.00 0.00 0.00 84 1015.7
20210919232045 84 251 2.6 6.1 0.00 0.00 0.00 83 1015.6
20210919231530 85 288 1.7 5.2 0.00 0.00 0.00 82 1015.6
20210919231035 86 244 1.7 5.2 0.00 0.00 0.00 80 1015.7
20210919230539 86 112 0.0 0.9 0.00 0.00 0.00 81 1015.7
20210919230054 86 43 0.0 1.7 0.00 0.00 0.00 80 1015.6
20210919225543 86 43 0.0 1.7 0.00 0.00 0.00 80 1015.5
20210919225029 86 43 0.0 1.7 0.00 0.00 0.00 80 1015.4
20210919224533 86 43 0.0 0.9 0.00 0.00 0.00 81 1015.5
20210919224039 86 51 0.0 1.7 0.00 0.00 0.00 81 1015.5
20210919223544 86 51 0.0 1.7 0.00 0.00 0.00 80 1015.5
20210919223027 86 51 0.0 1.7 0.00 0.00 0.00 81 1015.4
20210919222531 86 51 0.0 2.6 0.00 0.00 0.00 81 1015.2
20210919222033 86 49 0.0 2.6 0.00 0.00 0.00 80 1015.1
20210919221537 86 319 0.0 1.7 0.00 0.00 0.00 79 1015.1
20210919221041 86 273 0.0 1.7 0.00 0.00 0.00 79 1015.1
20210919220530 86 70 0.0 3.5 0.00 0.00 0.00 79 1015.2
20210919220044 87 71 0.9 3.5 0.00 0.00 0.00 80 1015.2
20210919215533 87 143 0.9 2.6 0.00 0.00 0.00 80 1015.1
20210919215039 87 71 1.7 4.3 0.00 0.00 0.00 79 1015.1
20210919214542 88 65 0.9 4.3 0.00 0.00 0.00 78 1015.1
20210919214026 88 28 0.0 3.5 0.00 0.00 0.00 78 1015.1
20210919213531 88 65 1.7 3.5 0.00 0.00 0.00 77 1015.1
20210919213036 89 82 0.9 3.5 0.00 0.00 0.00 79 1015.1
20210919212531 89 73 0.9 3.5 0.00 0.00 0.00 77 1015.1
20210919212036 89 80 0.9 3.5 0.00 0.00 0.00 78 1015.0
20210919211542 90 269 0.9 3.5 0.00 0.00 0.00 78 1015.0
20210919211027 90 15 0.9 4.3 0.00 0.00 0.00 79 1014.9
20210919210531 89 38 0.9 4.3 0.00 0.00 0.00 79 1014.9
20210919210048 89 80 0.9 3.5 0.00 0.00 0.00 79 1014.9
20210919205537 89 80 0.9 7.0 0.00 0.00 0.00 79 1014.8
20210919205042 89 84 0.9 7.0 0.00 0.00 0.00 78 1014.8
20210919204544 89 80 0.9 5.2 0.00 0.00 0.00 79 1014.8
20210919204028 90 77 0.9 5.2 0.00 0.00 0.00 77 1014.8
20210919203531 90 87 0.0 2.6 0.00 0.00 0.00 77 1014.9
20210919203035 89 55 0.9 1.7 0.00 0.00 0.00 78 1015.0
20210919202537 89 148 0.9 1.7 0.00 0.00 0.00 78 1015.1
20210919202043 89 130 0.9 2.6 0.00 0.00 0.00 79 1015.1
20210919201527 88 78 0.9 2.6 0.00 0.00 0.00 78 1015.2
20210919201033 88 89 0.0 2.6 0.00 0.00 0.00 79 1015.1
20210919200538 88 111 0.9 2.6 0.00 0.00 0.00 77 1015.2
20210919200053 89 126 0.9 2.6 0.00 0.00 0.00 76 1015.2
20210919195544 90 96 0.9 2.6 0.00 0.00 0.00 76 1015.2
20210919195027 90 103 0.9 2.6 0.00 0.00 0.00 75 1015.1
20210919194532 90 122 0.9 4.3 0.00 0.00 0.00 76 1015.1
20210919194038 90 131 1.7 4.3 0.00 0.00 0.00 76 1015.1
20210919193543 89 121 0.9 2.6 0.00 0.00 0.00 77 1015.1
20210919193029 88 102 0.9 2.6 0.00 0.00 0.00 78 1015.3
20210919192534 87 61 0.9 4.3 0.00 0.00 0.00 78 1015.3
20210919192038 86 79 0.9 5.2 0.00 0.00 0.00 78 1015.3
20210919191544 85 54 0.9 2.6 0.00 0.00 0.00 79 1015.5
20210919191027 83 317 0.9 4.3 0.00 0.00 0.00 83 1015.6
20210919190534 82 275 0.9 4.3 0.00 0.00 0.00 83 1015.5
20210919190049 81 158 0.9 5.2 0.00 0.00 0.00 85 1015.6
20210919185540 81 171 1.7 6.1 0.00 0.00 0.00 88 1015.8
20210919185044 81 281 1.7 7.8 0.00 0.00 0.00 89 1015.6
20210919184530 81 271 1.7 7.8 0.00 0.00 0.00 90 1015.7
20210919184036 82 222 2.6 7.8 0.00 0.00 0.00 88 1016.0
20210919183542 84 15 2.6 7.0 0.00 0.00 0.00 85 1016.2
20210919183027 85 90 1.7 7.0 0.00 0.00 0.00 78 1016.4
20210919182533 87 28 2.6 7.0 0.00 0.00 0.00 75 1016.5
20210919182036 89 221 2.6 5.2 0.00 0.00 0.00 73 1016.5
20210919181541 90 86 0.9 3.5 0.00 0.00 0.00 72 1016.3
20210919181028 91 57 0.9 3.5 0.00 0.00 0.00 71 1016.2
20210919180533 91 74 0.9 6.1 0.00 0.00 0.00 70 1016.3
20210919180049 92 79 0.9 2.6 0.00 0.00 0.00 66 1016.1
20210919175540 92 29 0.0 1.7 0.00 0.00 0.00 65 1016.1
20210919175045 92 163 0.0 2.6 0.00 0.00 0.00 64 1016.1
20210919174530 93 5 0.9 3.5 0.00 0.00 0.00 63 1016.2
20210919174034 93 312 0.9 4.3 0.00 0.00 0.00 63 1016.4
20210919173539 94 317 1.7 4.3 0.00 0.00 0.00 63 1016.5
20210919173045 94 77 0.0 3.5 0.00 0.00 0.00 63 1016.6
20210919172529 94 79 0.9 3.5 0.00 0.00 0.00 60 1016.7
20210919172035 94 81 0.9 3.5 0.00 0.00 0.00 62 1016.7
20210919171537 94 277 1.7 3.5 0.00 0.00 0.00 62 1016.7
20210919171038 94 88 0.0 3.5 0.00 0.00 0.00 61 1016.8
20210919170539 94 68 0.0 3.5 0.00 0.00 0.00 64 1016.9
20210919170050 93 63 0.9 2.6 0.00 0.00 0.00 62 1017.0
20210919165535 93 42 0.9 3.5 0.00 0.00 0.00 67 1017.1
20210919165034 92 285 0.9 2.6 0.00 0.00 0.00 64 1017.2
20210919164538 92 286 0.9 2.6 0.00 0.00 0.00 65 1017.2
20210919164038 91 330 0.9 2.6 0.00 0.00 0.00 66 1017.3
20210919163540 92 348 0.9 2.6 0.00 0.00 0.00 67 1017.4
20210919163028 92 313 0.9 2.6 0.00 0.00 0.00 67 1017.4
20210919162533 92 348 0.9 3.5 0.00 0.00 0.00 69 1017.4
20210919162034 91 18 0.9 4.3 0.00 0.00 0.00 70 1017.4
20210919161538 91 92 1.7 4.3 0.00 0.00 0.00 69 1017.4
20210919161041 91 26 0.0 3.5 0.00 0.00 0.00 70 1017.5
20210919160545 91 34 0.9 2.6 0.00 0.00 0.00 70 1017.6
20210919160042 91 333 0.9 2.6 0.00 0.00 0.00 70 1017.6
20210919155546 91 49 0.9 2.6 0.00 0.00 0.00 71 1017.8
20210919155046 90 82 0.9 2.6 0.00 0.00 0.00 72 1017.8
20210919154530 90 248 0.9 2.6 0.00 0.00 0.00 71 1017.8
20210919154032 90 360 0.9 2.6 0.00 0.00 0.00 71 1017.8
20210919153532 90 10 0.0 1.7 0.00 0.00 0.00 73 1017.8
20210919153035 90 5 0.0 2.6 0.00 0.00 0.00 74 1017.9
20210919152538 89 86 0.9 1.7 0.00 0.00 0.00 74 1017.9
20210919152041 89 96 0.0 2.6 0.00 0.00 0.00 74 1018.0
20210919151540 89 97 0.9 2.6 0.00 0.00 0.00 75 1018.1
20210919151044 88 310 0.9 3.5 0.00 0.00 0.00 75 1018.2
20210919150544 88 234 0.9 3.5 0.00 0.00 0.00 74 1018.1
20210919150056 88 11 0.0 2.6 0.00 0.00 0.00 75 1018.1
20210919145545 88 355 0.9 3.5 0.00 0.00 0.00 76 1018.1
20210919145027 88 43 1.7 3.5 0.00 0.00 0.00 75 1018.0
20210919144529 88 314 0.9 2.6 0.00 0.00 0.00 77 1017.9
20210919144033 88 307 0.9 2.6 0.00 0.00 0.00 77 1017.8
20210919143535 87 5 1.7 3.5 0.00 0.00 0.00 78 1017.9
20210919143038 87 90 0.9 2.6 0.00 0.00 0.00 78 1017.7
20210919142540 87 321 0.9 2.6 0.00 0.00 0.00 78 1017.7
20210919142044 86 5 0.9 3.5 0.00 0.00 0.00 79 1017.7
20210919141529 86 67 0.9 3.5 0.00 0.00 0.00 81 1017.7
20210919141034 86 26 0.9 2.6 0.00 0.00 0.00 82 1017.7
20210919140538 85 360 0.9 2.6 0.00 0.00 0.00 84 1017.6
20210919140051 85 38 0.9 3.5 0.00 0.00 0.00 84 1017.5
20210919135541 84 340 0.0 1.7 0.00 0.00 0.00 85 1017.6
20210919135045 84 331 0.9 3.5 0.00 0.00 0.00 86 1017.6
20210919134529 84 360 0.9 3.5 0.00 0.00 0.00 86 1017.6
20210919134034 83 325 0.9 2.6 0.00 0.00 0.00 87 1017.6
20210919133539 83 24 0.0 2.6 0.00 0.00 0.00 88 1017.6
20210919133046 83 5 0.9 2.6 0.00 0.00 0.00 88 1017.7
20210919132531 83 342 0.9 2.6 0.00 0.00 0.00 89 1017.6
20210919132036 82 5 0.0 2.6 0.00 0.00 0.00 89 1017.6
20210919131542 82 51 0.9 2.6 0.00 0.00 0.00 89 1017.6
20210919131028 82 15 0.0 2.6 0.00 0.00 0.00 90 1017.6
20210919130532 82 41 0.0 1.7 0.00 0.00 0.00 90 1017.5
20210919130047 82 327 0.0 1.7 0.00 0.00 0.00 91 1017.4
20210919125538 81 319 0.0 2.6 0.00 0.00 0.00 91 1017.4
20210919125044 81 319 0.0 2.6 0.00 0.00 0.00 91 1017.4
20210919124528 81 38 0.0 1.7 0.00 0.00 0.00 92 1017.3
20210919124034 81 24 0.0 0.9 0.00 0.00 0.00 92 1017.3
20210919123540 80 24 0.0 1.7 0.00 0.00 0.00 93 1017.2
20210919123044 80 24 0.0 1.7 0.00 0.00 0.00 93 1017.3
20210919122529 80 328 0.0 1.7 0.00 0.00 0.00 94 1017.2
20210919122034 80 328 0.0 1.7 0.00 0.00 0.00 94 1017.2
20210919121537 79 328 0.0 1.7 0.00 0.00 0.00 95 1017.2
20210919121040 79 328 0.0 1.7 0.00 0.00 0.00 96 1017.2
20210919120547 79 328 0.0 1.7 0.00 0.00 0.00 96 1017.3
20210919120102 79 328 0.0 1.7 0.00 0.00 0.00 97 1017.2
20210919115532 79 346 0.0 0.0 0.00 0.00 0.00 97 1017.3
20210919115038 79 5 0.0 0.0 0.00 0.00 0.00 97 1017.2
20210919114542 79 5 0.0 0.0 0.00 0.00 0.00 97 1017.3
20210919114028 79 5 0.0 0.0 0.00 0.00 0.00 97 1017.2
20210919113534 79 5 0.0 0.0 0.00 0.00 0.00 97 1017.2
20210919113039 79 5 0.0 0.0 0.00 0.00 0.00 97 1017.1
20210919112545 79 5 0.0 0.0 0.00 0.00 0.00 96 1017.2
20210919112029 79 5 0.0 0.0 0.00 0.00 0.00 96 1017.2
20210919111534 79 5 0.0 0.0 0.00 0.00 0.00 96 1017.2
20210919111040 79 5 0.0 0.0 0.00 0.00 0.00 96 1017.2
20210919110546 79 5 0.0 0.0 0.00 0.00 0.00 96 1017.1
20210919110043 79 5 0.0 0.0 0.00 0.00 0.00 96 1017.1
20210919105534 79 5 0.0 0.0 0.00 0.00 0.00 96 1017.1
20210919105039 79 5 0.0 0.0 0.00 0.00 0.00 95 1017.0
20210919104529 79 5 0.0 0.0 0.00 0.00 0.00 95 1017.1
20210919104035 79 5 0.0 0.0 0.00 0.00 0.00 95 1017.0
20210919103540 79 5 0.0 0.0 0.00 0.00 0.00 95 1016.9
20210919103027 79 5 0.0 0.0 0.00 0.00 0.00 95 1017.0
20210919102532 79 5 0.0 0.0 0.00 0.00 0.00 95 1017.0
20210919102038 79 5 0.0 0.0 0.00 0.00 0.00 95 1016.9
20210919101544 79 5 0.0 0.0 0.00 0.00 0.00 95 1016.8
20210919101030 79 5 0.0 0.0 0.00 0.00 0.00 95 1016.8
20210919100533 80 5 0.0 0.0 0.00 0.00 0.00 95 1016.7
20210919100047 79 5 0.0 0.0 0.00 0.00 0.00 94 1016.7
20210919095536 79 5 0.0 0.0 0.00 0.00 0.00 94 1016.7
20210919095041 79 5 0.0 0.0 0.00 0.00 0.00 94 1016.7
20210919094545 79 5 0.0 0.0 0.00 0.00 0.00 94 1016.8
20210919094028 79 5 0.0 0.0 0.00 0.00 0.00 94 1016.7
20210919093532 79 5 0.0 0.0 0.00 0.00 0.00 94 1016.7
20210919093038 79 5 0.0 0.0 0.00 0.00 0.00 94 1016.7
20210919092544 79 5 0.0 0.0 0.00 0.00 0.00 94 1016.5
20210919092029 79 5 0.0 0.0 0.00 0.00 0.00 94 1016.5
20210919091534 79 5 0.0 0.0 0.00 0.00 0.00 94 1016.4
20210919091039 79 5 0.0 0.0 0.00 0.00 0.00 94 1016.4
20210919090543 79 5 0.0 0.0 0.00 0.00 0.00 93 1016.3
20210919090101 79 5 0.0 0.0 0.00 0.00 0.00 93 1016.2
20210919085532 79 5 0.0 0.0 0.00 0.00 0.00 93 1016.2
20210919085036 79 5 0.0 0.0 0.00 0.00 0.00 93 1016.2
20210919084540 80 5 0.0 0.0 0.00 0.00 0.00 93 1016.1
20210919084044 80 5 0.0 0.0 0.00 0.00 0.00 92 1016.2
20210919083527 80 5 0.0 0.0 0.00 0.00 0.00 92 1016.3
20210919083031 80 5 0.0 0.0 0.00 0.00 0.00 92 1016.3
20210919082534 80 5 0.0 0.0 0.00 0.00 0.00 92 1016.3
20210919082038 80 5 0.0 0.0 0.00 0.00 0.00 92 1016.4
20210919081543 80 5 0.0 0.0 0.00 0.00 0.00 92 1016.5
20210919081046 80 5 0.0 0.0 0.00 0.00 0.00 92 1016.4
20210919080529 80 5 0.0 0.0 0.00 0.00 0.00 92 1016.5
20210919080043 80 5 0.0 0.0 0.00 0.00 0.00 92 1016.5
20210919075532 80 5 0.0 0.9 0.00 0.00 0.00 92 1016.5
20210919075035 80 5 0.0 0.9 0.00 0.00 0.00 91 1016.5
20210919074535 80 5 0.0 0.9 0.00 0.00 0.00 91 1016.5
20210919074039 80 5 0.0 0.9 0.00 0.00 0.00 91 1016.5
20210919073544 80 5 0.0 0.9 0.00 0.00 0.00 91 1016.5
20210919073027 81 5 0.0 0.9 0.00 0.00 0.00 91 1016.5
20210919072532 81 5 0.0 0.9 0.00 0.00 0.00 91 1016.6
20210919072035 81 5 0.0 0.9 0.00 0.00 0.00 90 1016.6
20210919071537 81 5 0.0 0.0 0.00 0.00 0.00 89 1016.7
20210919071040 81 5 0.0 0.0 0.00 0.00 0.00 89 1016.7
20210919070545 81 5 0.0 0.0 0.00 0.00 0.00 89 1016.8
20210919070058 81 5 0.0 0.0 0.00 0.00 0.00 89 1016.8
20210919065528 81 5 0.0 0.0 0.00 0.00 0.00 89 1016.8
20210919065033 81 5 0.0 0.9 0.00 0.00 0.00 89 1016.8
20210919064537 81 5 0.0 0.9 0.00 0.00 0.00 89 1016.8
20210919064041 81 5 0.0 0.9 0.00 0.00 0.00 89 1016.8
20210919063544 82 5 0.0 0.9 0.00 0.00 0.00 89 1016.8
20210919063029 82 5 0.0 0.9 0.00 0.00 0.00 90 1016.9
20210919062532 82 5 0.0 0.0 0.00 0.00 0.00 89 1017.0
20210919062037 82 5 0.0 0.0 0.00 0.00 0.00 89 1017.0
20210919061543 82 5 0.0 0.0 0.00 0.00 0.00 89 1017.1
20210919061029 82 5 0.0 0.0 0.00 0.00 0.00 89 1017.2
20210919060533 82 5 0.0 0.0 0.00 0.00 0.00 89 1017.1
20210919060050 82 5 0.0 0.0 0.00 0.00 0.00 89 1017.2
20210919055540 82 5 0.0 0.0 0.00 0.00 0.00 89 1017.2
20210919055046 82 5 0.0 0.0 0.00 0.00 0.00 89 1017.2
20210919054530 82 5 0.0 0.0 0.00 0.00 0.00 89 1017.3
20210919054036 82 5 0.0 0.0 0.00 0.00 0.00 90 1017.3
20210919053540 82 5 0.0 0.0 0.00 0.00 0.00 89 1017.3
20210919053030 82 5 0.0 0.0 0.00 0.00 0.00 89 1017.4
20210919052534 82 5 0.0 0.0 0.00 0.00 0.00 89 1017.3